Weather in Arezzo

Italy     43˚27′37″N   11˚51′40″E
temp.,
°C
wind,
m/s
gust,
m/s
humid.,
%
clouds,
%
prec.,
mm/h
press.,
hPa
HPBL,
m
3 december, thu
thu301:00+6˚wsw1194100 2.1 1006143
04:00+6˚nne1294100 0.9 1007158
07:00+5˚e1194100 0.9 100726
10:00+7˚ene118383 0.0 1008234
13:00+9˚sse117276 0.0 1007661
16:00+7˚ese018218 0.5 100623
19:00+5˚ene129114 0.7 100625
22:00+4˚e119138 0.0 100522
4 december, fri
fri401:00+3˚e119223 0.0 100422
04:00+2˚e129380 0.0 100222
07:00+3˚e239490 0.0 100256
10:00+6˚se4985100 0.0 1001537
13:00+9˚sse61083100 0.0 999914
16:00+8˚se51285100 0.1 997831
19:00+8˚sse51492100 0.5 997813
22:00+9˚sse71687100 1.6 9961088
5 december, sat
sat501:00+9˚se81786100 2.4 9961133
04:00+9˚se71588100 2.4 9951018
07:00+9˚sse71495100 10.3 995673
10:00+9˚se61592100 5.6 9941197
13:00+5˚nw91492100 13.7 995666
16:00+6˚ne2392100 6.6 995177
19:00+7˚wsw1197100 14.4 99551
22:00+9˚ese31195100 1.3 995614
6 december, sun
sun601:00+8˚se3797100 5.6 995374
04:00+7˚se2396100 2.6 995159
07:00+5˚w2597100 3.2 995289
10:00+7˚w3685100 0.1 995672
13:00+8˚w5871100 0.3 9951249
16:00+7˚wsw4880100 0.1 996407
19:00+4˚ssw239153 0.1 99850
22:00+3˚sse12920 0.0 100026
7 december, mon
mon701:00+4˚ese229223 0.1 100254
04:00+3˚e229261 0.0 100225
07:00+4˚ene129180 0.1 100324
10:00+7˚ene1282100 0.4 1003202
13:00+6˚sse1293100 2.8 1003213
16:00+5˚ene2292100 1.3 1002121
19:00+5˚ne1191100 1.4 100326
22:00+5˚s0194100 0.9 100564